<?xml version="1.0" encoding="UTF-8" standalone="no" ?>
<gpx xmlns="http://www.topografix.com/GPX/1/1" xmlns:xsi="http://www.w3.org/2001/XMLSchema-instance" xsi:schemaLocation="http://www.topografix.com/GPX/1/1 http://www.topografix.com/GPX/1/1/gpx.xsd" version="1.1" creator="VisuGPX - https://www.visugpx.com">
  <metadata>
    <name>Soupe aux choux 15 km</name>
    <desc><![CDATA[Organisation acp3c www.lapierredes3communes.fr]]></desc>
  </metadata>
  <trk>
    <name><![CDATA[Rando soupe au chou 14.5km-20105352]]></name>
    <extensions>
      <line xmlns="http://www.topografix.com/GPX/gpx_style/0/2">
        <color>0000FF</color>
        <width>4</width>
      </line>
    </extensions>
    <trkseg>
      <trkpt lat="45.67705" lon="4.30093">
        <ele>442</ele>
        <time>2024-10-19T21:30:15Z</time>
      </trkpt>
      <trkpt lat="45.67706" lon="4.30215">
        <ele>447</ele>
        <time>2024-10-19T21:31:23Z</time>
      </trkpt>
      <trkpt lat="45.6771" lon="4.30228">
        <ele>447</ele>
        <time>2024-10-19T21:31:31Z</time>
      </trkpt>
      <trkpt lat="45.67718" lon="4.30241">
        <ele>448</ele>
        <time>2024-10-19T21:31:41Z</time>
      </trkpt>
      <trkpt lat="45.67738" lon="4.30261">
        <ele>450</ele>
        <time>2024-10-19T21:32:00Z</time>
      </trkpt>
      <trkpt lat="45.67745" lon="4.3027">
        <ele>451</ele>
        <time>2024-10-19T21:32:08Z</time>
      </trkpt>
      <trkpt lat="45.67753" lon="4.30293">
        <ele>452</ele>
        <time>2024-10-19T21:32:22Z</time>
      </trkpt>
      <trkpt lat="45.67753" lon="4.30305">
        <ele>453</ele>
        <time>2024-10-19T21:32:29Z</time>
      </trkpt>
      <trkpt lat="45.67748" lon="4.30363">
        <ele>454</ele>
        <time>2024-10-19T21:33:02Z</time>
      </trkpt>
      <trkpt lat="45.67748" lon="4.3038">
        <ele>454</ele>
        <time>2024-10-19T21:33:11Z</time>
      </trkpt>
      <trkpt lat="45.6775" lon="4.30397">
        <ele>454</ele>
        <time>2024-10-19T21:33:21Z</time>
      </trkpt>
      <trkpt lat="45.67771" lon="4.30458">
        <ele>452</ele>
        <time>2024-10-19T21:33:59Z</time>
      </trkpt>
      <trkpt lat="45.6778" lon="4.30491">
        <ele>451</ele>
        <time>2024-10-19T21:34:19Z</time>
      </trkpt>
      <trkpt lat="45.67803" lon="4.30557">
        <ele>453</ele>
        <time>2024-10-19T21:35:00Z</time>
      </trkpt>
      <trkpt lat="45.67816" lon="4.30588">
        <ele>454</ele>
        <time>2024-10-19T21:35:20Z</time>
      </trkpt>
      <trkpt lat="45.67889" lon="4.30715">
        <ele>458</ele>
        <time>2024-10-19T21:36:52Z</time>
      </trkpt>
      <trkpt lat="45.67897" lon="4.3073">
        <ele>458</ele>
        <time>2024-10-19T21:37:03Z</time>
      </trkpt>
      <trkpt lat="45.67905" lon="4.3075">
        <ele>459</ele>
        <time>2024-10-19T21:37:16Z</time>
      </trkpt>
      <trkpt lat="45.67917" lon="4.30785">
        <ele>461</ele>
        <time>2024-10-19T21:37:38Z</time>
      </trkpt>
      <trkpt lat="45.67953" lon="4.30908">
        <ele>466</ele>
        <time>2024-10-19T21:38:52Z</time>
      </trkpt>
      <trkpt lat="45.67971" lon="4.30983">
        <ele>467</ele>
        <time>2024-10-19T21:39:36Z</time>
      </trkpt>
      <trkpt lat="45.67982" lon="4.31053">
        <ele>468</ele>
        <time>2024-10-19T21:40:17Z</time>
      </trkpt>
      <trkpt lat="45.67994" lon="4.31092">
        <ele>469</ele>
        <time>2024-10-19T21:40:40Z</time>
      </trkpt>
      <trkpt lat="45.68011" lon="4.31134">
        <ele>467</ele>
        <time>2024-10-19T21:41:08Z</time>
      </trkpt>
      <trkpt lat="45.68015" lon="4.31135">
        <ele>467</ele>
        <time>2024-10-19T21:41:11Z</time>
      </trkpt>
      <trkpt lat="45.68011" lon="4.31134">
        <ele>467</ele>
        <time>2024-10-19T21:41:14Z</time>
      </trkpt>
      <trkpt lat="45.68016" lon="4.31143">
        <ele>467</ele>
        <time>2024-10-19T21:41:21Z</time>
      </trkpt>
      <trkpt lat="45.6806" lon="4.31194">
        <ele>466</ele>
        <time>2024-10-19T21:42:06Z</time>
      </trkpt>
      <trkpt lat="45.68075" lon="4.31215">
        <ele>467</ele>
        <time>2024-10-19T21:42:23Z</time>
      </trkpt>
      <trkpt lat="45.68114" lon="4.3131">
        <ele>469</ele>
        <time>2024-10-19T21:43:24Z</time>
      </trkpt>
      <trkpt lat="45.68127" lon="4.31336">
        <ele>471</ele>
        <time>2024-10-19T21:43:42Z</time>
      </trkpt>
      <trkpt lat="45.68153" lon="4.31381">
        <ele>473</ele>
        <time>2024-10-19T21:44:15Z</time>
      </trkpt>
      <trkpt lat="45.68168" lon="4.31402">
        <ele>474</ele>
        <time>2024-10-19T21:44:32Z</time>
      </trkpt>
      <trkpt lat="45.6817" lon="4.3142">
        <ele>475</ele>
        <time>2024-10-19T21:44:42Z</time>
      </trkpt>
      <trkpt lat="45.68181" lon="4.31481">
        <ele>476</ele>
        <time>2024-10-19T21:45:17Z</time>
      </trkpt>
      <trkpt lat="45.68192" lon="4.3155">
        <ele>479</ele>
        <time>2024-10-19T21:45:57Z</time>
      </trkpt>
      <trkpt lat="45.68199" lon="4.31624">
        <ele>484</ele>
        <time>2024-10-19T21:46:38Z</time>
      </trkpt>
      <trkpt lat="45.68205" lon="4.31651">
        <ele>486</ele>
        <time>2024-10-19T21:46:54Z</time>
      </trkpt>
      <trkpt lat="45.68247" lon="4.31793">
        <ele>501</ele>
        <time>2024-10-19T21:48:21Z</time>
      </trkpt>
      <trkpt lat="45.68248" lon="4.31796">
        <ele>501</ele>
        <time>2024-10-19T21:48:22Z</time>
      </trkpt>
      <trkpt lat="45.68246" lon="4.31808">
        <ele>502</ele>
        <time>2024-10-19T21:48:29Z</time>
      </trkpt>
      <trkpt lat="45.68248" lon="4.31819">
        <ele>503</ele>
        <time>2024-10-19T21:48:36Z</time>
      </trkpt>
      <trkpt lat="45.68256" lon="4.3184">
        <ele>505</ele>
        <time>2024-10-19T21:48:49Z</time>
      </trkpt>
      <trkpt lat="45.68299" lon="4.31883">
        <ele>508</ele>
        <time>2024-10-19T21:49:31Z</time>
      </trkpt>
      <trkpt lat="45.68325" lon="4.31944">
        <ele>508</ele>
        <time>2024-10-19T21:50:11Z</time>
      </trkpt>
      <trkpt lat="45.68332" lon="4.31957">
        <ele>508</ele>
        <time>2024-10-19T21:50:20Z</time>
      </trkpt>
      <trkpt lat="45.68344" lon="4.31969">
        <ele>507</ele>
        <time>2024-10-19T21:50:32Z</time>
      </trkpt>
      <trkpt lat="45.68354" lon="4.31975">
        <ele>507</ele>
        <time>2024-10-19T21:50:41Z</time>
      </trkpt>
      <trkpt lat="45.68431" lon="4.31991">
        <ele>503</ele>
        <time>2024-10-19T21:51:43Z</time>
      </trkpt>
      <trkpt lat="45.68444" lon="4.3199">
        <ele>501</ele>
        <time>2024-10-19T21:51:53Z</time>
      </trkpt>
      <trkpt lat="45.68477" lon="4.31981">
        <ele>499</ele>
        <time>2024-10-19T21:52:20Z</time>
      </trkpt>
      <trkpt lat="45.68482" lon="4.31978">
        <ele>499</ele>
        <time>2024-10-19T21:52:25Z</time>
      </trkpt>
      <trkpt lat="45.68477" lon="4.31981">
        <ele>499</ele>
        <time>2024-10-19T21:52:29Z</time>
      </trkpt>
      <trkpt lat="45.68525" lon="4.31865">
        <ele>513</ele>
        <time>2024-10-19T21:53:44Z</time>
      </trkpt>
      <trkpt lat="45.68543" lon="4.31843">
        <ele>515</ele>
        <time>2024-10-19T21:54:03Z</time>
      </trkpt>
      <trkpt lat="45.68567" lon="4.31821">
        <ele>514</ele>
        <time>2024-10-19T21:54:26Z</time>
      </trkpt>
      <trkpt lat="45.68584" lon="4.31798">
        <ele>514</ele>
        <time>2024-10-19T21:54:45Z</time>
      </trkpt>
      <trkpt lat="45.68588" lon="4.31796">
        <ele>514</ele>
        <time>2024-10-19T21:54:48Z</time>
      </trkpt>
      <trkpt lat="45.68598" lon="4.31808">
        <ele>513</ele>
        <time>2024-10-19T21:54:59Z</time>
      </trkpt>
      <trkpt lat="45.68602" lon="4.31811">
        <ele>513</ele>
        <time>2024-10-19T21:55:02Z</time>
      </trkpt>
      <trkpt lat="45.68606" lon="4.3181">
        <ele>513</ele>
        <time>2024-10-19T21:55:06Z</time>
      </trkpt>
      <trkpt lat="45.68639" lon="4.31742">
        <ele>514</ele>
        <time>2024-10-19T21:55:52Z</time>
      </trkpt>
      <trkpt lat="45.68642" lon="4.3174">
        <ele>514</ele>
        <time>2024-10-19T21:55:54Z</time>
      </trkpt>
      <trkpt lat="45.68689" lon="4.31771">
        <ele>512</ele>
        <time>2024-10-19T21:56:36Z</time>
      </trkpt>
      <trkpt lat="45.68696" lon="4.31779">
        <ele>512</ele>
        <time>2024-10-19T21:56:43Z</time>
      </trkpt>
      <trkpt lat="45.68696" lon="4.31795">
        <ele>512</ele>
        <time>2024-10-19T21:56:52Z</time>
      </trkpt>
      <trkpt lat="45.68763" lon="4.31868">
        <ele>513</ele>
        <time>2024-10-19T21:57:59Z</time>
      </trkpt>
      <trkpt lat="45.68767" lon="4.31869">
        <ele>513</ele>
        <time>2024-10-19T21:58:03Z</time>
      </trkpt>
      <trkpt lat="45.68773" lon="4.31867">
        <ele>513</ele>
        <time>2024-10-19T21:58:08Z</time>
      </trkpt>
      <trkpt lat="45.68799" lon="4.31835">
        <ele>513</ele>
        <time>2024-10-19T21:58:35Z</time>
      </trkpt>
      <trkpt lat="45.6883" lon="4.31802">
        <ele>510</ele>
        <time>2024-10-19T21:59:06Z</time>
      </trkpt>
      <trkpt lat="45.68873" lon="4.31778">
        <ele>507</ele>
        <time>2024-10-19T21:59:43Z</time>
      </trkpt>
      <trkpt lat="45.68904" lon="4.31753">
        <ele>505</ele>
        <time>2024-10-19T22:00:11Z</time>
      </trkpt>
      <trkpt lat="45.68938" lon="4.31732">
        <ele>504</ele>
        <time>2024-10-19T22:00:41Z</time>
      </trkpt>
      <trkpt lat="45.68953" lon="4.31735">
        <ele>504</ele>
        <time>2024-10-19T22:00:53Z</time>
      </trkpt>
      <trkpt lat="45.68964" lon="4.31737">
        <ele>504</ele>
        <time>2024-10-19T22:01:02Z</time>
      </trkpt>
      <trkpt lat="45.68963" lon="4.31733">
        <ele>504</ele>
        <time>2024-10-19T22:01:05Z</time>
      </trkpt>
      <trkpt lat="45.68976" lon="4.31719">
        <ele>504</ele>
        <time>2024-10-19T22:01:18Z</time>
      </trkpt>
      <trkpt lat="45.68995" lon="4.31703">
        <ele>503</ele>
        <time>2024-10-19T22:01:35Z</time>
      </trkpt>
      <trkpt lat="45.6902" lon="4.31691">
        <ele>503</ele>
        <time>2024-10-19T22:01:56Z</time>
      </trkpt>
      <trkpt lat="45.69057" lon="4.31682">
        <ele>501</ele>
        <time>2024-10-19T22:02:26Z</time>
      </trkpt>
      <trkpt lat="45.69062" lon="4.31677">
        <ele>501</ele>
        <time>2024-10-19T22:02:31Z</time>
      </trkpt>
      <trkpt lat="45.69062" lon="4.31671">
        <ele>501</ele>
        <time>2024-10-19T22:02:35Z</time>
      </trkpt>
      <trkpt lat="45.69059" lon="4.31657">
        <ele>501</ele>
        <time>2024-10-19T22:02:43Z</time>
      </trkpt>
      <trkpt lat="45.69065" lon="4.31649">
        <ele>502</ele>
        <time>2024-10-19T22:02:49Z</time>
      </trkpt>
      <trkpt lat="45.69176" lon="4.31557">
        <ele>496</ele>
        <time>2024-10-19T22:04:32Z</time>
      </trkpt>
      <trkpt lat="45.69178" lon="4.31552">
        <ele>496</ele>
        <time>2024-10-19T22:04:35Z</time>
      </trkpt>
      <trkpt lat="45.69177" lon="4.31549">
        <ele>497</ele>
        <time>2024-10-19T22:04:37Z</time>
      </trkpt>
      <trkpt lat="45.69173" lon="4.31522">
        <ele>499</ele>
        <time>2024-10-19T22:04:53Z</time>
      </trkpt>
      <trkpt lat="45.69154" lon="4.31458">
        <ele>506</ele>
        <time>2024-10-19T22:05:31Z</time>
      </trkpt>
      <trkpt lat="45.69095" lon="4.31281">
        <ele>529</ele>
        <time>2024-10-19T22:07:21Z</time>
      </trkpt>
      <trkpt lat="45.69091" lon="4.31264">
        <ele>529</ele>
        <time>2024-10-19T22:07:31Z</time>
      </trkpt>
      <trkpt lat="45.69092" lon="4.31249">
        <ele>529</ele>
        <time>2024-10-19T22:07:40Z</time>
      </trkpt>
      <trkpt lat="45.69095" lon="4.31234">
        <ele>528</ele>
        <time>2024-10-19T22:07:48Z</time>
      </trkpt>
      <trkpt lat="45.69111" lon="4.31186">
        <ele>524</ele>
        <time>2024-10-19T22:08:18Z</time>
      </trkpt>
      <trkpt lat="45.69135" lon="4.31128">
        <ele>519</ele>
        <time>2024-10-19T22:08:56Z</time>
      </trkpt>
      <trkpt lat="45.69144" lon="4.31102">
        <ele>517</ele>
        <time>2024-10-19T22:09:12Z</time>
      </trkpt>
      <trkpt lat="45.6918" lon="4.31026">
        <ele>513</ele>
        <time>2024-10-19T22:10:03Z</time>
      </trkpt>
      <trkpt lat="45.69202" lon="4.30962">
        <ele>506</ele>
        <time>2024-10-19T22:10:43Z</time>
      </trkpt>
      <trkpt lat="45.69207" lon="4.30935">
        <ele>503</ele>
        <time>2024-10-19T22:10:59Z</time>
      </trkpt>
      <trkpt lat="45.69212" lon="4.30884">
        <ele>497</ele>
        <time>2024-10-19T22:11:28Z</time>
      </trkpt>
      <trkpt lat="45.69263" lon="4.30937">
        <ele>501</ele>
        <time>2024-10-19T22:12:18Z</time>
      </trkpt>
      <trkpt lat="45.69282" lon="4.30951">
        <ele>500</ele>
        <time>2024-10-19T22:12:35Z</time>
      </trkpt>
      <trkpt lat="45.69307" lon="4.30965">
        <ele>499</ele>
        <time>2024-10-19T22:12:57Z</time>
      </trkpt>
      <trkpt lat="45.69323" lon="4.30981">
        <ele>499</ele>
        <time>2024-10-19T22:13:12Z</time>
      </trkpt>
      <trkpt lat="45.69353" lon="4.31022">
        <ele>497</ele>
        <time>2024-10-19T22:13:46Z</time>
      </trkpt>
      <trkpt lat="45.69362" lon="4.31047">
        <ele>495</ele>
        <time>2024-10-19T22:14:01Z</time>
      </trkpt>
      <trkpt lat="45.69365" lon="4.31075">
        <ele>494</ele>
        <time>2024-10-19T22:14:17Z</time>
      </trkpt>
      <trkpt lat="45.69368" lon="4.31126">
        <ele>492</ele>
        <time>2024-10-19T22:14:46Z</time>
      </trkpt>
      <trkpt lat="45.69373" lon="4.31144">
        <ele>490</ele>
        <time>2024-10-19T22:14:57Z</time>
      </trkpt>
      <trkpt lat="45.69381" lon="4.31153">
        <ele>488</ele>
        <time>2024-10-19T22:15:05Z</time>
      </trkpt>
      <trkpt lat="45.69399" lon="4.31161">
        <ele>483</ele>
        <time>2024-10-19T22:15:20Z</time>
      </trkpt>
      <trkpt lat="45.69403" lon="4.31172">
        <ele>482</ele>
        <time>2024-10-19T22:15:27Z</time>
      </trkpt>
      <trkpt lat="45.69404" lon="4.31192">
        <ele>480</ele>
        <time>2024-10-19T22:15:38Z</time>
      </trkpt>
      <trkpt lat="45.69391" lon="4.31227">
        <ele>480</ele>
        <time>2024-10-19T22:16:00Z</time>
      </trkpt>
      <trkpt lat="45.6937" lon="4.31271">
        <ele>482</ele>
        <time>2024-10-19T22:16:30Z</time>
      </trkpt>
      <trkpt lat="45.69365" lon="4.31289">
        <ele>482</ele>
        <time>2024-10-19T22:16:41Z</time>
      </trkpt>
      <trkpt lat="45.69367" lon="4.31295">
        <ele>481</ele>
        <time>2024-10-19T22:16:45Z</time>
      </trkpt>
      <trkpt lat="45.69453" lon="4.31363">
        <ele>476</ele>
        <time>2024-10-19T22:18:03Z</time>
      </trkpt>
      <trkpt lat="45.6949" lon="4.31395">
        <ele>478</ele>
        <time>2024-10-19T22:18:38Z</time>
      </trkpt>
      <trkpt lat="45.69544" lon="4.31481">
        <ele>483</ele>
        <time>2024-10-19T22:19:42Z</time>
      </trkpt>
      <trkpt lat="45.69552" lon="4.31495">
        <ele>483</ele>
        <time>2024-10-19T22:19:53Z</time>
      </trkpt>
      <trkpt lat="45.69558" lon="4.315">
        <ele>483</ele>
        <time>2024-10-19T22:19:58Z</time>
      </trkpt>
      <trkpt lat="45.69602" lon="4.31514">
        <ele>482</ele>
        <time>2024-10-19T22:20:34Z</time>
      </trkpt>
      <trkpt lat="45.696" lon="4.31518">
        <ele>482</ele>
        <time>2024-10-19T22:20:37Z</time>
      </trkpt>
      <trkpt lat="45.69574" lon="4.31591">
        <ele>488</ele>
        <time>2024-10-19T22:21:23Z</time>
      </trkpt>
      <trkpt lat="45.69563" lon="4.31652">
        <ele>492</ele>
        <time>2024-10-19T22:21:58Z</time>
      </trkpt>
      <trkpt lat="45.69559" lon="4.31757">
        <ele>501</ele>
        <time>2024-10-19T22:22:57Z</time>
      </trkpt>
      <trkpt lat="45.69559" lon="4.31795">
        <ele>503</ele>
        <time>2024-10-19T22:23:18Z</time>
      </trkpt>
      <trkpt lat="45.69557" lon="4.31819">
        <ele>504</ele>
        <time>2024-10-19T22:23:32Z</time>
      </trkpt>
      <trkpt lat="45.6955" lon="4.31849">
        <ele>505</ele>
        <time>2024-10-19T22:23:49Z</time>
      </trkpt>
      <trkpt lat="45.69551" lon="4.31865">
        <ele>506</ele>
        <time>2024-10-19T22:23:58Z</time>
      </trkpt>
      <trkpt lat="45.69571" lon="4.31959">
        <ele>508</ele>
        <time>2024-10-19T22:24:53Z</time>
      </trkpt>
      <trkpt lat="45.6958" lon="4.32015">
        <ele>511</ele>
        <time>2024-10-19T22:25:25Z</time>
      </trkpt>
      <trkpt lat="45.69563" lon="4.32089">
        <ele>515</ele>
        <time>2024-10-19T22:26:09Z</time>
      </trkpt>
      <trkpt lat="45.69549" lon="4.32135">
        <ele>516</ele>
        <time>2024-10-19T22:26:37Z</time>
      </trkpt>
      <trkpt lat="45.69531" lon="4.32224">
        <ele>516</ele>
        <time>2024-10-19T22:27:29Z</time>
      </trkpt>
      <trkpt lat="45.6951" lon="4.32397">
        <ele>514</ele>
        <time>2024-10-19T22:29:07Z</time>
      </trkpt>
      <trkpt lat="45.6951" lon="4.32469">
        <ele>513</ele>
        <time>2024-10-19T22:29:47Z</time>
      </trkpt>
      <trkpt lat="45.69539" lon="4.32537">
        <ele>511</ele>
        <time>2024-10-19T22:30:32Z</time>
      </trkpt>
      <trkpt lat="45.69547" lon="4.32551">
        <ele>511</ele>
        <time>2024-10-19T22:30:42Z</time>
      </trkpt>
      <trkpt lat="45.69564" lon="4.32574">
        <ele>511</ele>
        <time>2024-10-19T22:31:01Z</time>
      </trkpt>
      <trkpt lat="45.6957" lon="4.32589">
        <ele>511</ele>
        <time>2024-10-19T22:31:10Z</time>
      </trkpt>
      <trkpt lat="45.69577" lon="4.32635">
        <ele>514</ele>
        <time>2024-10-19T22:31:37Z</time>
      </trkpt>
      <trkpt lat="45.69582" lon="4.3267">
        <ele>516</ele>
        <time>2024-10-19T22:31:57Z</time>
      </trkpt>
      <trkpt lat="45.69585" lon="4.32734">
        <ele>516</ele>
        <time>2024-10-19T22:32:33Z</time>
      </trkpt>
      <trkpt lat="45.69599" lon="4.32863">
        <ele>518</ele>
        <time>2024-10-19T22:33:46Z</time>
      </trkpt>
      <trkpt lat="45.69608" lon="4.32901">
        <ele>520</ele>
        <time>2024-10-19T22:34:08Z</time>
      </trkpt>
      <trkpt lat="45.69621" lon="4.32941">
        <ele>522</ele>
        <time>2024-10-19T22:34:33Z</time>
      </trkpt>
      <trkpt lat="45.69627" lon="4.32978">
        <ele>522</ele>
        <time>2024-10-19T22:34:54Z</time>
      </trkpt>
      <trkpt lat="45.69634" lon="4.33005">
        <ele>522</ele>
        <time>2024-10-19T22:35:10Z</time>
      </trkpt>
      <trkpt lat="45.69651" lon="4.33048">
        <ele>521</ele>
        <time>2024-10-19T22:35:38Z</time>
      </trkpt>
      <trkpt lat="45.69665" lon="4.33091">
        <ele>521</ele>
        <time>2024-10-19T22:36:04Z</time>
      </trkpt>
      <trkpt lat="45.6967" lon="4.33118">
        <ele>520</ele>
        <time>2024-10-19T22:36:20Z</time>
      </trkpt>
      <trkpt lat="45.69682" lon="4.33196">
        <ele>520</ele>
        <time>2024-10-19T22:37:04Z</time>
      </trkpt>
      <trkpt lat="45.69685" lon="4.3323">
        <ele>521</ele>
        <time>2024-10-19T22:37:24Z</time>
      </trkpt>
      <trkpt lat="45.69697" lon="4.33368">
        <ele>524</ele>
        <time>2024-10-19T22:38:41Z</time>
      </trkpt>
      <trkpt lat="45.69705" lon="4.33443">
        <ele>524</ele>
        <time>2024-10-19T22:39:24Z</time>
      </trkpt>
      <trkpt lat="45.69706" lon="4.33476">
        <ele>524</ele>
        <time>2024-10-19T22:39:42Z</time>
      </trkpt>
      <trkpt lat="45.69705" lon="4.33492">
        <ele>524</ele>
        <time>2024-10-19T22:39:51Z</time>
      </trkpt>
      <trkpt lat="45.69697" lon="4.33522">
        <ele>525</ele>
        <time>2024-10-19T22:40:09Z</time>
      </trkpt>
      <trkpt lat="45.69684" lon="4.33559">
        <ele>526</ele>
        <time>2024-10-19T22:40:32Z</time>
      </trkpt>
      <trkpt lat="45.69616" lon="4.33701">
        <ele>533</ele>
        <time>2024-10-19T22:42:09Z</time>
      </trkpt>
      <trkpt lat="45.69602" lon="4.33738">
        <ele>534</ele>
        <time>2024-10-19T22:42:32Z</time>
      </trkpt>
      <trkpt lat="45.69595" lon="4.3376">
        <ele>535</ele>
        <time>2024-10-19T22:42:46Z</time>
      </trkpt>
      <trkpt lat="45.69601" lon="4.33827">
        <ele>537</ele>
        <time>2024-10-19T22:43:24Z</time>
      </trkpt>
      <trkpt lat="45.696" lon="4.3387">
        <ele>538</ele>
        <time>2024-10-19T22:43:48Z</time>
      </trkpt>
      <trkpt lat="45.69598" lon="4.3389">
        <ele>539</ele>
        <time>2024-10-19T22:43:59Z</time>
      </trkpt>
      <trkpt lat="45.69602" lon="4.33971">
        <ele>540</ele>
        <time>2024-10-19T22:44:44Z</time>
      </trkpt>
      <trkpt lat="45.69601" lon="4.33998">
        <ele>541</ele>
        <time>2024-10-19T22:44:59Z</time>
      </trkpt>
      <trkpt lat="45.69602" lon="4.34031">
        <ele>542</ele>
        <time>2024-10-19T22:45:18Z</time>
      </trkpt>
      <trkpt lat="45.69605" lon="4.34069">
        <ele>543</ele>
        <time>2024-10-19T22:45:39Z</time>
      </trkpt>
      <trkpt lat="45.69609" lon="4.3409">
        <ele>543</ele>
        <time>2024-10-19T22:45:51Z</time>
      </trkpt>
      <trkpt lat="45.69616" lon="4.34104">
        <ele>542</ele>
        <time>2024-10-19T22:46:01Z</time>
      </trkpt>
      <trkpt lat="45.69645" lon="4.3414">
        <ele>542</ele>
        <time>2024-10-19T22:46:32Z</time>
      </trkpt>
      <trkpt lat="45.69641" lon="4.34153">
        <ele>542</ele>
        <time>2024-10-19T22:46:40Z</time>
      </trkpt>
      <trkpt lat="45.69638" lon="4.34176">
        <ele>543</ele>
        <time>2024-10-19T22:46:53Z</time>
      </trkpt>
      <trkpt lat="45.69632" lon="4.34204">
        <ele>543</ele>
        <time>2024-10-19T22:47:09Z</time>
      </trkpt>
      <trkpt lat="45.69622" lon="4.3423">
        <ele>544</ele>
        <time>2024-10-19T22:47:26Z</time>
      </trkpt>
      <trkpt lat="45.69608" lon="4.34253">
        <ele>543</ele>
        <time>2024-10-19T22:47:43Z</time>
      </trkpt>
      <trkpt lat="45.69599" lon="4.34262">
        <ele>543</ele>
        <time>2024-10-19T22:47:52Z</time>
      </trkpt>
      <trkpt lat="45.69576" lon="4.3429">
        <ele>542</ele>
        <time>2024-10-19T22:48:16Z</time>
      </trkpt>
      <trkpt lat="45.69555" lon="4.34305">
        <ele>541</ele>
        <time>2024-10-19T22:48:35Z</time>
      </trkpt>
      <trkpt lat="45.69528" lon="4.34321">
        <ele>541</ele>
        <time>2024-10-19T22:48:58Z</time>
      </trkpt>
      <trkpt lat="45.69484" lon="4.34347">
        <ele>541</ele>
        <time>2024-10-19T22:49:36Z</time>
      </trkpt>
      <trkpt lat="45.69464" lon="4.34363">
        <ele>540</ele>
        <time>2024-10-19T22:49:54Z</time>
      </trkpt>
      <trkpt lat="45.6945" lon="4.34382">
        <ele>539</ele>
        <time>2024-10-19T22:50:10Z</time>
      </trkpt>
      <trkpt lat="45.69429" lon="4.34439">
        <ele>537</ele>
        <time>2024-10-19T22:50:46Z</time>
      </trkpt>
      <trkpt lat="45.69421" lon="4.34454">
        <ele>535</ele>
        <time>2024-10-19T22:50:57Z</time>
      </trkpt>
      <trkpt lat="45.69391" lon="4.3449">
        <ele>527</ele>
        <time>2024-10-19T22:51:28Z</time>
      </trkpt>
      <trkpt lat="45.69385" lon="4.34502">
        <ele>525</ele>
        <time>2024-10-19T22:51:36Z</time>
      </trkpt>
      <trkpt lat="45.69367" lon="4.34528">
        <ele>522</ele>
        <time>2024-10-19T22:51:57Z</time>
      </trkpt>
      <trkpt lat="45.69347" lon="4.34552">
        <ele>518</ele>
        <time>2024-10-19T22:52:17Z</time>
      </trkpt>
      <trkpt lat="45.69334" lon="4.34573">
        <ele>515</ele>
        <time>2024-10-19T22:52:33Z</time>
      </trkpt>
      <trkpt lat="45.69314" lon="4.34613">
        <ele>508</ele>
        <time>2024-10-19T22:53:01Z</time>
      </trkpt>
      <trkpt lat="45.69306" lon="4.34634">
        <ele>505</ele>
        <time>2024-10-19T22:53:14Z</time>
      </trkpt>
      <trkpt lat="45.69286" lon="4.34674">
        <ele>499</ele>
        <time>2024-10-19T22:53:42Z</time>
      </trkpt>
      <trkpt lat="45.69279" lon="4.34681">
        <ele>497</ele>
        <time>2024-10-19T22:53:48Z</time>
      </trkpt>
      <trkpt lat="45.69272" lon="4.34683">
        <ele>496</ele>
        <time>2024-10-19T22:53:54Z</time>
      </trkpt>
      <trkpt lat="45.69258" lon="4.3468">
        <ele>494</ele>
        <time>2024-10-19T22:54:05Z</time>
      </trkpt>
      <trkpt lat="45.69249" lon="4.34681">
        <ele>492</ele>
        <time>2024-10-19T22:54:13Z</time>
      </trkpt>
      <trkpt lat="45.69244" lon="4.34689">
        <ele>491</ele>
        <time>2024-10-19T22:54:19Z</time>
      </trkpt>
      <trkpt lat="45.69243" lon="4.34694">
        <ele>490</ele>
        <time>2024-10-19T22:54:22Z</time>
      </trkpt>
      <trkpt lat="45.69242" lon="4.34699">
        <ele>490</ele>
        <time>2024-10-19T22:54:25Z</time>
      </trkpt>
      <trkpt lat="45.6922" lon="4.34741">
        <ele>484</ele>
        <time>2024-10-19T22:54:54Z</time>
      </trkpt>
      <trkpt lat="45.69187" lon="4.34755">
        <ele>482</ele>
        <time>2024-10-19T22:55:21Z</time>
      </trkpt>
      <trkpt lat="45.69152" lon="4.34808">
        <ele>488</ele>
        <time>2024-10-19T22:56:02Z</time>
      </trkpt>
      <trkpt lat="45.69149" lon="4.34977">
        <ele>505</ele>
        <time>2024-10-19T22:57:37Z</time>
      </trkpt>
      <trkpt lat="45.6914" lon="4.35114">
        <ele>515</ele>
        <time>2024-10-19T22:58:54Z</time>
      </trkpt>
      <trkpt lat="45.69115" lon="4.35164">
        <ele>522</ele>
        <time>2024-10-19T22:59:28Z</time>
      </trkpt>
      <trkpt lat="45.69121" lon="4.35217">
        <ele>516</ele>
        <time>2024-10-19T22:59:58Z</time>
      </trkpt>
      <trkpt lat="45.69065" lon="4.35314">
        <ele>522</ele>
        <time>2024-10-19T23:01:09Z</time>
      </trkpt>
      <trkpt lat="45.69041" lon="4.35391">
        <ele>519</ele>
        <time>2024-10-19T23:01:56Z</time>
      </trkpt>
      <trkpt lat="45.69057" lon="4.35459">
        <ele>512</ele>
        <time>2024-10-19T23:02:36Z</time>
      </trkpt>
      <trkpt lat="45.69048" lon="4.35463">
        <ele>514</ele>
        <time>2024-10-19T23:02:43Z</time>
      </trkpt>
      <trkpt lat="45.69042" lon="4.35473">
        <ele>514</ele>
        <time>2024-10-19T23:02:51Z</time>
      </trkpt>
      <trkpt lat="45.69038" lon="4.35485">
        <ele>515</ele>
        <time>2024-10-19T23:02:58Z</time>
      </trkpt>
      <trkpt lat="45.69027" lon="4.35506">
        <ele>516</ele>
        <time>2024-10-19T23:03:13Z</time>
      </trkpt>
      <trkpt lat="45.69009" lon="4.35523">
        <ele>520</ele>
        <time>2024-10-19T23:03:30Z</time>
      </trkpt>
      <trkpt lat="45.68994" lon="4.35531">
        <ele>522</ele>
        <time>2024-10-19T23:03:43Z</time>
      </trkpt>
      <trkpt lat="45.68906" lon="4.35545">
        <ele>538</ele>
        <time>2024-10-19T23:04:54Z</time>
      </trkpt>
      <trkpt lat="45.68896" lon="4.3554">
        <ele>538</ele>
        <time>2024-10-19T23:05:02Z</time>
      </trkpt>
      <trkpt lat="45.68884" lon="4.3553">
        <ele>539</ele>
        <time>2024-10-19T23:05:13Z</time>
      </trkpt>
      <trkpt lat="45.68878" lon="4.35519">
        <ele>539</ele>
        <time>2024-10-19T23:05:21Z</time>
      </trkpt>
      <trkpt lat="45.68865" lon="4.35508">
        <ele>540</ele>
        <time>2024-10-19T23:05:33Z</time>
      </trkpt>
      <trkpt lat="45.68863" lon="4.35512">
        <ele>540</ele>
        <time>2024-10-19T23:05:36Z</time>
      </trkpt>
      <trkpt lat="45.68857" lon="4.35514">
        <ele>541</ele>
        <time>2024-10-19T23:05:41Z</time>
      </trkpt>
      <trkpt lat="45.68851" lon="4.35507">
        <ele>541</ele>
        <time>2024-10-19T23:05:47Z</time>
      </trkpt>
      <trkpt lat="45.68844" lon="4.35518">
        <ele>542</ele>
        <time>2024-10-19T23:05:56Z</time>
      </trkpt>
      <trkpt lat="45.68836" lon="4.35551">
        <ele>544</ele>
        <time>2024-10-19T23:06:15Z</time>
      </trkpt>
      <trkpt lat="45.68744" lon="4.35486">
        <ele>537</ele>
        <time>2024-10-19T23:07:37Z</time>
      </trkpt>
      <trkpt lat="45.68725" lon="4.35485">
        <ele>536</ele>
        <time>2024-10-19T23:07:52Z</time>
      </trkpt>
      <trkpt lat="45.68675" lon="4.3546">
        <ele>530</ele>
        <time>2024-10-19T23:08:35Z</time>
      </trkpt>
      <trkpt lat="45.68658" lon="4.35454">
        <ele>528</ele>
        <time>2024-10-19T23:08:49Z</time>
      </trkpt>
      <trkpt lat="45.68635" lon="4.35432">
        <ele>523</ele>
        <time>2024-10-19T23:09:11Z</time>
      </trkpt>
      <trkpt lat="45.68598" lon="4.35402">
        <ele>516</ele>
        <time>2024-10-19T23:09:45Z</time>
      </trkpt>
      <trkpt lat="45.68578" lon="4.35391">
        <ele>512</ele>
        <time>2024-10-19T23:10:02Z</time>
      </trkpt>
      <trkpt lat="45.68535" lon="4.3536">
        <ele>501</ele>
        <time>2024-10-19T23:10:41Z</time>
      </trkpt>
      <trkpt lat="45.6851" lon="4.35357">
        <ele>497</ele>
        <time>2024-10-19T23:11:01Z</time>
      </trkpt>
      <trkpt lat="45.685" lon="4.35338">
        <ele>494</ele>
        <time>2024-10-19T23:11:14Z</time>
      </trkpt>
      <trkpt lat="45.68499" lon="4.35341">
        <ele>494</ele>
        <time>2024-10-19T23:11:16Z</time>
      </trkpt>
      <trkpt lat="45.685" lon="4.35338">
        <ele>494</ele>
        <time>2024-10-19T23:11:18Z</time>
      </trkpt>
      <trkpt lat="45.68513" lon="4.35303">
        <ele>494</ele>
        <time>2024-10-19T23:11:40Z</time>
      </trkpt>
      <trkpt lat="45.68516" lon="4.35288">
        <ele>495</ele>
        <time>2024-10-19T23:11:49Z</time>
      </trkpt>
      <trkpt lat="45.68517" lon="4.35273">
        <ele>494</ele>
        <time>2024-10-19T23:11:57Z</time>
      </trkpt>
      <trkpt lat="45.68515" lon="4.35253">
        <ele>494</ele>
        <time>2024-10-19T23:12:09Z</time>
      </trkpt>
      <trkpt lat="45.68515" lon="4.35252">
        <ele>494</ele>
        <time>2024-10-19T23:12:09Z</time>
      </trkpt>
      <trkpt lat="45.68474" lon="4.35226">
        <ele>488</ele>
        <time>2024-10-19T23:12:45Z</time>
      </trkpt>
      <trkpt lat="45.68466" lon="4.35216">
        <ele>487</ele>
        <time>2024-10-19T23:12:53Z</time>
      </trkpt>
      <trkpt lat="45.68431" lon="4.35194">
        <ele>484</ele>
        <time>2024-10-19T23:13:24Z</time>
      </trkpt>
      <trkpt lat="45.6841" lon="4.35183">
        <ele>484</ele>
        <time>2024-10-19T23:13:42Z</time>
      </trkpt>
      <trkpt lat="45.68399" lon="4.35175">
        <ele>485</ele>
        <time>2024-10-19T23:13:52Z</time>
      </trkpt>
      <trkpt lat="45.68383" lon="4.35157">
        <ele>487</ele>
        <time>2024-10-19T23:14:08Z</time>
      </trkpt>
      <trkpt lat="45.68377" lon="4.35146">
        <ele>487</ele>
        <time>2024-10-19T23:14:16Z</time>
      </trkpt>
      <trkpt lat="45.68372" lon="4.35136">
        <ele>487</ele>
        <time>2024-10-19T23:14:23Z</time>
      </trkpt>
      <trkpt lat="45.68375" lon="4.35134">
        <ele>487</ele>
        <time>2024-10-19T23:14:26Z</time>
      </trkpt>
      <trkpt lat="45.68386" lon="4.35106">
        <ele>484</ele>
        <time>2024-10-19T23:14:43Z</time>
      </trkpt>
      <trkpt lat="45.68389" lon="4.35084">
        <ele>482</ele>
        <time>2024-10-19T23:14:56Z</time>
      </trkpt>
      <trkpt lat="45.68389" lon="4.35068">
        <ele>483</ele>
        <time>2024-10-19T23:15:05Z</time>
      </trkpt>
      <trkpt lat="45.68387" lon="4.35056">
        <ele>483</ele>
        <time>2024-10-19T23:15:12Z</time>
      </trkpt>
      <trkpt lat="45.6838" lon="4.35034">
        <ele>485</ele>
        <time>2024-10-19T23:15:25Z</time>
      </trkpt>
      <trkpt lat="45.68374" lon="4.35023">
        <ele>486</ele>
        <time>2024-10-19T23:15:33Z</time>
      </trkpt>
      <trkpt lat="45.68325" lon="4.3497">
        <ele>497</ele>
        <time>2024-10-19T23:16:22Z</time>
      </trkpt>
      <trkpt lat="45.68256" lon="4.34883">
        <ele>515</ele>
        <time>2024-10-19T23:17:36Z</time>
      </trkpt>
      <trkpt lat="45.68233" lon="4.34861">
        <ele>520</ele>
        <time>2024-10-19T23:17:58Z</time>
      </trkpt>
      <trkpt lat="45.68116" lon="4.34762">
        <ele>532</ele>
        <time>2024-10-19T23:19:47Z</time>
      </trkpt>
      <trkpt lat="45.68114" lon="4.3476">
        <ele>532</ele>
        <time>2024-10-19T23:19:49Z</time>
      </trkpt>
      <trkpt lat="45.68109" lon="4.34749">
        <ele>533</ele>
        <time>2024-10-19T23:19:56Z</time>
      </trkpt>
      <trkpt lat="45.68084" lon="4.34709">
        <ele>532</ele>
        <time>2024-10-19T23:20:26Z</time>
      </trkpt>
      <trkpt lat="45.68068" lon="4.34688">
        <ele>534</ele>
        <time>2024-10-19T23:20:44Z</time>
      </trkpt>
      <trkpt lat="45.67984" lon="4.34549">
        <ele>544</ele>
        <time>2024-10-19T23:22:26Z</time>
      </trkpt>
      <trkpt lat="45.67938" lon="4.34487">
        <ele>549</ele>
        <time>2024-10-19T23:23:17Z</time>
      </trkpt>
      <trkpt lat="45.67927" lon="4.34476">
        <ele>550</ele>
        <time>2024-10-19T23:23:28Z</time>
      </trkpt>
      <trkpt lat="45.67904" lon="4.34464">
        <ele>553</ele>
        <time>2024-10-19T23:23:47Z</time>
      </trkpt>
      <trkpt lat="45.67864" lon="4.34428">
        <ele>555</ele>
        <time>2024-10-19T23:24:25Z</time>
      </trkpt>
      <trkpt lat="45.67819" lon="4.3439">
        <ele>557</ele>
        <time>2024-10-19T23:25:07Z</time>
      </trkpt>
      <trkpt lat="45.67816" lon="4.34386">
        <ele>557</ele>
        <time>2024-10-19T23:25:10Z</time>
      </trkpt>
      <trkpt lat="45.67812" lon="4.34378">
        <ele>556</ele>
        <time>2024-10-19T23:25:16Z</time>
      </trkpt>
      <trkpt lat="45.67773" lon="4.34342">
        <ele>553</ele>
        <time>2024-10-19T23:25:53Z</time>
      </trkpt>
      <trkpt lat="45.67741" lon="4.34317">
        <ele>550</ele>
        <time>2024-10-19T23:26:22Z</time>
      </trkpt>
      <trkpt lat="45.67728" lon="4.34316">
        <ele>551</ele>
        <time>2024-10-19T23:26:33Z</time>
      </trkpt>
      <trkpt lat="45.67711" lon="4.34322">
        <ele>552</ele>
        <time>2024-10-19T23:26:47Z</time>
      </trkpt>
      <trkpt lat="45.67702" lon="4.34322">
        <ele>553</ele>
        <time>2024-10-19T23:26:54Z</time>
      </trkpt>
      <trkpt lat="45.67677" lon="4.34312">
        <ele>554</ele>
        <time>2024-10-19T23:27:15Z</time>
      </trkpt>
      <trkpt lat="45.67675" lon="4.34307">
        <ele>554</ele>
        <time>2024-10-19T23:27:18Z</time>
      </trkpt>
      <trkpt lat="45.67673" lon="4.34298">
        <ele>555</ele>
        <time>2024-10-19T23:27:23Z</time>
      </trkpt>
      <trkpt lat="45.67671" lon="4.34213">
        <ele>555</ele>
        <time>2024-10-19T23:28:11Z</time>
      </trkpt>
      <trkpt lat="45.67668" lon="4.34199">
        <ele>555</ele>
        <time>2024-10-19T23:28:19Z</time>
      </trkpt>
      <trkpt lat="45.67665" lon="4.34195">
        <ele>555</ele>
        <time>2024-10-19T23:28:22Z</time>
      </trkpt>
      <trkpt lat="45.67661" lon="4.34194">
        <ele>556</ele>
        <time>2024-10-19T23:28:25Z</time>
      </trkpt>
      <trkpt lat="45.67657" lon="4.34195">
        <ele>556</ele>
        <time>2024-10-19T23:28:29Z</time>
      </trkpt>
      <trkpt lat="45.67652" lon="4.34216">
        <ele>558</ele>
        <time>2024-10-19T23:28:41Z</time>
      </trkpt>
      <trkpt lat="45.67646" lon="4.34231">
        <ele>560</ele>
        <time>2024-10-19T23:28:51Z</time>
      </trkpt>
      <trkpt lat="45.67632" lon="4.34249">
        <ele>564</ele>
        <time>2024-10-19T23:29:06Z</time>
      </trkpt>
      <trkpt lat="45.67626" lon="4.34253">
        <ele>565</ele>
        <time>2024-10-19T23:29:11Z</time>
      </trkpt>
      <trkpt lat="45.67606" lon="4.34251">
        <ele>569</ele>
        <time>2024-10-19T23:29:27Z</time>
      </trkpt>
      <trkpt lat="45.67593" lon="4.34247">
        <ele>571</ele>
        <time>2024-10-19T23:29:38Z</time>
      </trkpt>
      <trkpt lat="45.67527" lon="4.34222">
        <ele>575</ele>
        <time>2024-10-19T23:30:33Z</time>
      </trkpt>
      <trkpt lat="45.67437" lon="4.34196">
        <ele>579</ele>
        <time>2024-10-19T23:31:46Z</time>
      </trkpt>
      <trkpt lat="45.67425" lon="4.34194">
        <ele>579</ele>
        <time>2024-10-19T23:31:56Z</time>
      </trkpt>
      <trkpt lat="45.67406" lon="4.34195">
        <ele>579</ele>
        <time>2024-10-19T23:32:11Z</time>
      </trkpt>
      <trkpt lat="45.67402" lon="4.34195">
        <ele>579</ele>
        <time>2024-10-19T23:32:14Z</time>
      </trkpt>
      <trkpt lat="45.67407" lon="4.34146">
        <ele>577</ele>
        <time>2024-10-19T23:32:42Z</time>
      </trkpt>
      <trkpt lat="45.67407" lon="4.34134">
        <ele>576</ele>
        <time>2024-10-19T23:32:49Z</time>
      </trkpt>
      <trkpt lat="45.67404" lon="4.34125">
        <ele>576</ele>
        <time>2024-10-19T23:32:54Z</time>
      </trkpt>
      <trkpt lat="45.67408" lon="4.34091">
        <ele>574</ele>
        <time>2024-10-19T23:33:13Z</time>
      </trkpt>
      <trkpt lat="45.67407" lon="4.34058">
        <ele>573</ele>
        <time>2024-10-19T23:33:32Z</time>
      </trkpt>
      <trkpt lat="45.67402" lon="4.34009">
        <ele>572</ele>
        <time>2024-10-19T23:34:00Z</time>
      </trkpt>
      <trkpt lat="45.67396" lon="4.33979">
        <ele>571</ele>
        <time>2024-10-19T23:34:17Z</time>
      </trkpt>
      <trkpt lat="45.67387" lon="4.33944">
        <ele>570</ele>
        <time>2024-10-19T23:34:38Z</time>
      </trkpt>
      <trkpt lat="45.67377" lon="4.33916">
        <ele>570</ele>
        <time>2024-10-19T23:34:56Z</time>
      </trkpt>
      <trkpt lat="45.6737" lon="4.33901">
        <ele>569</ele>
        <time>2024-10-19T23:35:06Z</time>
      </trkpt>
      <trkpt lat="45.67359" lon="4.33888">
        <ele>569</ele>
        <time>2024-10-19T23:35:17Z</time>
      </trkpt>
      <trkpt lat="45.6728" lon="4.33676">
        <ele>561</ele>
        <time>2024-10-19T23:37:31Z</time>
      </trkpt>
      <trkpt lat="45.67271" lon="4.3365">
        <ele>560</ele>
        <time>2024-10-19T23:37:48Z</time>
      </trkpt>
      <trkpt lat="45.67262" lon="4.33622">
        <ele>559</ele>
        <time>2024-10-19T23:38:05Z</time>
      </trkpt>
      <trkpt lat="45.67239" lon="4.33567">
        <ele>555</ele>
        <time>2024-10-19T23:38:41Z</time>
      </trkpt>
      <trkpt lat="45.6721" lon="4.33488">
        <ele>552</ele>
        <time>2024-10-19T23:39:31Z</time>
      </trkpt>
      <trkpt lat="45.67194" lon="4.33457">
        <ele>551</ele>
        <time>2024-10-19T23:39:52Z</time>
      </trkpt>
      <trkpt lat="45.67186" lon="4.33448">
        <ele>551</ele>
        <time>2024-10-19T23:40:00Z</time>
      </trkpt>
      <trkpt lat="45.67159" lon="4.3343">
        <ele>549</ele>
        <time>2024-10-19T23:40:24Z</time>
      </trkpt>
      <trkpt lat="45.67115" lon="4.33404">
        <ele>546</ele>
        <time>2024-10-19T23:41:02Z</time>
      </trkpt>
      <trkpt lat="45.67089" lon="4.33381">
        <ele>545</ele>
        <time>2024-10-19T23:41:27Z</time>
      </trkpt>
      <trkpt lat="45.67079" lon="4.33368">
        <ele>544</ele>
        <time>2024-10-19T23:41:38Z</time>
      </trkpt>
      <trkpt lat="45.67063" lon="4.33333">
        <ele>543</ele>
        <time>2024-10-19T23:42:01Z</time>
      </trkpt>
      <trkpt lat="45.67042" lon="4.33278">
        <ele>538</ele>
        <time>2024-10-19T23:42:36Z</time>
      </trkpt>
      <trkpt lat="45.67021" lon="4.33241">
        <ele>532</ele>
        <time>2024-10-19T23:43:03Z</time>
      </trkpt>
      <trkpt lat="45.67013" lon="4.33223">
        <ele>529</ele>
        <time>2024-10-19T23:43:15Z</time>
      </trkpt>
      <trkpt lat="45.67004" lon="4.33192">
        <ele>526</ele>
        <time>2024-10-19T23:43:34Z</time>
      </trkpt>
      <trkpt lat="45.66999" lon="4.33169">
        <ele>525</ele>
        <time>2024-10-19T23:43:47Z</time>
      </trkpt>
      <trkpt lat="45.66996" lon="4.33139">
        <ele>522</ele>
        <time>2024-10-19T23:44:04Z</time>
      </trkpt>
      <trkpt lat="45.66994" lon="4.3312">
        <ele>520</ele>
        <time>2024-10-19T23:44:15Z</time>
      </trkpt>
      <trkpt lat="45.66984" lon="4.33099">
        <ele>516</ele>
        <time>2024-10-19T23:44:29Z</time>
      </trkpt>
      <trkpt lat="45.66949" lon="4.33053">
        <ele>505</ele>
        <time>2024-10-19T23:45:07Z</time>
      </trkpt>
      <trkpt lat="45.66936" lon="4.33032">
        <ele>501</ele>
        <time>2024-10-19T23:45:23Z</time>
      </trkpt>
      <trkpt lat="45.66933" lon="4.3303">
        <ele>500</ele>
        <time>2024-10-19T23:45:25Z</time>
      </trkpt>
      <trkpt lat="45.66928" lon="4.33036">
        <ele>499</ele>
        <time>2024-10-19T23:45:31Z</time>
      </trkpt>
      <trkpt lat="45.66917" lon="4.33096">
        <ele>500</ele>
        <time>2024-10-19T23:46:05Z</time>
      </trkpt>
      <trkpt lat="45.66912" lon="4.33101">
        <ele>501</ele>
        <time>2024-10-19T23:46:10Z</time>
      </trkpt>
      <trkpt lat="45.669" lon="4.33057">
        <ele>500</ele>
        <time>2024-10-19T23:46:37Z</time>
      </trkpt>
      <trkpt lat="45.66896" lon="4.33033">
        <ele>499</ele>
        <time>2024-10-19T23:46:50Z</time>
      </trkpt>
      <trkpt lat="45.66894" lon="4.33003">
        <ele>497</ele>
        <time>2024-10-19T23:47:07Z</time>
      </trkpt>
      <trkpt lat="45.66897" lon="4.32989">
        <ele>496</ele>
        <time>2024-10-19T23:47:15Z</time>
      </trkpt>
      <trkpt lat="45.66904" lon="4.32967">
        <ele>494</ele>
        <time>2024-10-19T23:47:29Z</time>
      </trkpt>
      <trkpt lat="45.66937" lon="4.32889">
        <ele>491</ele>
        <time>2024-10-19T23:48:20Z</time>
      </trkpt>
      <trkpt lat="45.66968" lon="4.32842">
        <ele>490</ele>
        <time>2024-10-19T23:48:56Z</time>
      </trkpt>
      <trkpt lat="45.66986" lon="4.32822">
        <ele>489</ele>
        <time>2024-10-19T23:49:14Z</time>
      </trkpt>
      <trkpt lat="45.67015" lon="4.32794">
        <ele>489</ele>
        <time>2024-10-19T23:49:42Z</time>
      </trkpt>
      <trkpt lat="45.6703" lon="4.32777">
        <ele>488</ele>
        <time>2024-10-19T23:49:58Z</time>
      </trkpt>
      <trkpt lat="45.6707" lon="4.32709">
        <ele>484</ele>
        <time>2024-10-19T23:50:47Z</time>
      </trkpt>
      <trkpt lat="45.67085" lon="4.32675">
        <ele>482</ele>
        <time>2024-10-19T23:51:10Z</time>
      </trkpt>
      <trkpt lat="45.67115" lon="4.32637">
        <ele>485</ele>
        <time>2024-10-19T23:51:42Z</time>
      </trkpt>
      <trkpt lat="45.67132" lon="4.32603">
        <ele>485</ele>
        <time>2024-10-19T23:52:05Z</time>
      </trkpt>
      <trkpt lat="45.67137" lon="4.32581">
        <ele>484</ele>
        <time>2024-10-19T23:52:18Z</time>
      </trkpt>
      <trkpt lat="45.6714" lon="4.32526">
        <ele>483</ele>
        <time>2024-10-19T23:52:49Z</time>
      </trkpt>
      <trkpt lat="45.67148" lon="4.32503">
        <ele>480</ele>
        <time>2024-10-19T23:53:04Z</time>
      </trkpt>
      <trkpt lat="45.67183" lon="4.32445">
        <ele>472</ele>
        <time>2024-10-19T23:53:46Z</time>
      </trkpt>
      <trkpt lat="45.67201" lon="4.32421">
        <ele>470</ele>
        <time>2024-10-19T23:54:06Z</time>
      </trkpt>
      <trkpt lat="45.67239" lon="4.3238">
        <ele>470</ele>
        <time>2024-10-19T23:54:44Z</time>
      </trkpt>
      <trkpt lat="45.67249" lon="4.32366">
        <ele>469</ele>
        <time>2024-10-19T23:54:55Z</time>
      </trkpt>
      <trkpt lat="45.67261" lon="4.32347">
        <ele>469</ele>
        <time>2024-10-19T23:55:10Z</time>
      </trkpt>
      <trkpt lat="45.67284" lon="4.3232">
        <ele>469</ele>
        <time>2024-10-19T23:55:34Z</time>
      </trkpt>
      <trkpt lat="45.67313" lon="4.32273">
        <ele>468</ele>
        <time>2024-10-19T23:56:09Z</time>
      </trkpt>
      <trkpt lat="45.67342" lon="4.32251">
        <ele>462</ele>
        <time>2024-10-19T23:56:35Z</time>
      </trkpt>
      <trkpt lat="45.67362" lon="4.32239">
        <ele>463</ele>
        <time>2024-10-19T23:56:52Z</time>
      </trkpt>
      <trkpt lat="45.67375" lon="4.32226">
        <ele>464</ele>
        <time>2024-10-19T23:57:05Z</time>
      </trkpt>
      <trkpt lat="45.67444" lon="4.321">
        <ele>458</ele>
        <time>2024-10-19T23:58:35Z</time>
      </trkpt>
      <trkpt lat="45.67454" lon="4.32075">
        <ele>457</ele>
        <time>2024-10-19T23:58:51Z</time>
      </trkpt>
      <trkpt lat="45.67458" lon="4.32058">
        <ele>456</ele>
        <time>2024-10-19T23:59:01Z</time>
      </trkpt>
      <trkpt lat="45.67459" lon="4.32041">
        <ele>455</ele>
        <time>2024-10-19T23:59:10Z</time>
      </trkpt>
      <trkpt lat="45.6746" lon="4.32032">
        <ele>455</ele>
        <time>2024-10-19T23:59:15Z</time>
      </trkpt>
      <trkpt lat="45.67466" lon="4.32016">
        <ele>454</ele>
        <time>2024-10-19T23:59:26Z</time>
      </trkpt>
      <trkpt lat="45.67473" lon="4.32005">
        <ele>453</ele>
        <time>2024-10-19T23:59:34Z</time>
      </trkpt>
      <trkpt lat="45.6751" lon="4.31979">
        <ele>453</ele>
        <time>2024-10-20T00:00:07Z</time>
      </trkpt>
      <trkpt lat="45.67534" lon="4.3195">
        <ele>454</ele>
        <time>2024-10-20T00:00:32Z</time>
      </trkpt>
      <trkpt lat="45.67549" lon="4.31941">
        <ele>453</ele>
        <time>2024-10-20T00:00:45Z</time>
      </trkpt>
      <trkpt lat="45.67567" lon="4.31937">
        <ele>451</ele>
        <time>2024-10-20T00:01:00Z</time>
      </trkpt>
      <trkpt lat="45.67581" lon="4.31936">
        <ele>449</ele>
        <time>2024-10-20T00:01:11Z</time>
      </trkpt>
      <trkpt lat="45.67606" lon="4.31946">
        <ele>446</ele>
        <time>2024-10-20T00:01:32Z</time>
      </trkpt>
      <trkpt lat="45.6764" lon="4.31964">
        <ele>443</ele>
        <time>2024-10-20T00:02:01Z</time>
      </trkpt>
      <trkpt lat="45.67665" lon="4.31971">
        <ele>440</ele>
        <time>2024-10-20T00:02:21Z</time>
      </trkpt>
      <trkpt lat="45.67676" lon="4.31972">
        <ele>440</ele>
        <time>2024-10-20T00:02:30Z</time>
      </trkpt>
      <trkpt lat="45.67688" lon="4.31967">
        <ele>440</ele>
        <time>2024-10-20T00:02:40Z</time>
      </trkpt>
      <trkpt lat="45.67698" lon="4.31961">
        <ele>439</ele>
        <time>2024-10-20T00:02:49Z</time>
      </trkpt>
      <trkpt lat="45.67706" lon="4.31951">
        <ele>440</ele>
        <time>2024-10-20T00:02:57Z</time>
      </trkpt>
      <trkpt lat="45.67713" lon="4.31939">
        <ele>440</ele>
        <time>2024-10-20T00:03:06Z</time>
      </trkpt>
      <trkpt lat="45.67714" lon="4.31931">
        <ele>440</ele>
        <time>2024-10-20T00:03:10Z</time>
      </trkpt>
      <trkpt lat="45.67716" lon="4.31917">
        <ele>441</ele>
        <time>2024-10-20T00:03:18Z</time>
      </trkpt>
      <trkpt lat="45.67703" lon="4.31884">
        <ele>441</ele>
        <time>2024-10-20T00:03:40Z</time>
      </trkpt>
      <trkpt lat="45.67685" lon="4.31845">
        <ele>439</ele>
        <time>2024-10-20T00:04:06Z</time>
      </trkpt>
      <trkpt lat="45.67678" lon="4.31824">
        <ele>438</ele>
        <time>2024-10-20T00:04:19Z</time>
      </trkpt>
      <trkpt lat="45.67688" lon="4.3174">
        <ele>439</ele>
        <time>2024-10-20T00:05:06Z</time>
      </trkpt>
      <trkpt lat="45.67696" lon="4.31696">
        <ele>439</ele>
        <time>2024-10-20T00:05:32Z</time>
      </trkpt>
      <trkpt lat="45.67708" lon="4.31653">
        <ele>439</ele>
        <time>2024-10-20T00:05:58Z</time>
      </trkpt>
      <trkpt lat="45.67715" lon="4.31643">
        <ele>439</ele>
        <time>2024-10-20T00:06:06Z</time>
      </trkpt>
      <trkpt lat="45.67736" lon="4.31641">
        <ele>440</ele>
        <time>2024-10-20T00:06:23Z</time>
      </trkpt>
      <trkpt lat="45.67751" lon="4.31643">
        <ele>442</ele>
        <time>2024-10-20T00:06:35Z</time>
      </trkpt>
      <trkpt lat="45.67779" lon="4.31649">
        <ele>443</ele>
        <time>2024-10-20T00:06:57Z</time>
      </trkpt>
      <trkpt lat="45.67827" lon="4.31663">
        <ele>447</ele>
        <time>2024-10-20T00:07:36Z</time>
      </trkpt>
      <trkpt lat="45.67862" lon="4.31665">
        <ele>450</ele>
        <time>2024-10-20T00:08:05Z</time>
      </trkpt>
      <trkpt lat="45.6792" lon="4.31662">
        <ele>454</ele>
        <time>2024-10-20T00:08:51Z</time>
      </trkpt>
      <trkpt lat="45.67936" lon="4.3166">
        <ele>456</ele>
        <time>2024-10-20T00:09:04Z</time>
      </trkpt>
      <trkpt lat="45.67954" lon="4.31654">
        <ele>458</ele>
        <time>2024-10-20T00:09:19Z</time>
      </trkpt>
      <trkpt lat="45.67995" lon="4.31652">
        <ele>463</ele>
        <time>2024-10-20T00:09:51Z</time>
      </trkpt>
      <trkpt lat="45.68" lon="4.31648">
        <ele>464</ele>
        <time>2024-10-20T00:09:56Z</time>
      </trkpt>
      <trkpt lat="45.68005" lon="4.31637">
        <ele>464</ele>
        <time>2024-10-20T00:10:03Z</time>
      </trkpt>
      <trkpt lat="45.68006" lon="4.31626">
        <ele>463</ele>
        <time>2024-10-20T00:10:10Z</time>
      </trkpt>
      <trkpt lat="45.68003" lon="4.31602">
        <ele>462</ele>
        <time>2024-10-20T00:10:23Z</time>
      </trkpt>
      <trkpt lat="45.67999" lon="4.31589">
        <ele>460</ele>
        <time>2024-10-20T00:10:31Z</time>
      </trkpt>
      <trkpt lat="45.67995" lon="4.31579">
        <ele>459</ele>
        <time>2024-10-20T00:10:38Z</time>
      </trkpt>
      <trkpt lat="45.67991" lon="4.31572">
        <ele>459</ele>
        <time>2024-10-20T00:10:43Z</time>
      </trkpt>
      <trkpt lat="45.67974" lon="4.31563">
        <ele>456</ele>
        <time>2024-10-20T00:10:57Z</time>
      </trkpt>
      <trkpt lat="45.67967" lon="4.31556">
        <ele>455</ele>
        <time>2024-10-20T00:11:04Z</time>
      </trkpt>
      <trkpt lat="45.67965" lon="4.31551">
        <ele>454</ele>
        <time>2024-10-20T00:11:07Z</time>
      </trkpt>
      <trkpt lat="45.67967" lon="4.31502">
        <ele>457</ele>
        <time>2024-10-20T00:11:35Z</time>
      </trkpt>
      <trkpt lat="45.67956" lon="4.31455">
        <ele>456</ele>
        <time>2024-10-20T00:12:02Z</time>
      </trkpt>
      <trkpt lat="45.67953" lon="4.31436">
        <ele>456</ele>
        <time>2024-10-20T00:12:13Z</time>
      </trkpt>
      <trkpt lat="45.67955" lon="4.31426">
        <ele>456</ele>
        <time>2024-10-20T00:12:19Z</time>
      </trkpt>
      <trkpt lat="45.67959" lon="4.31413">
        <ele>458</ele>
        <time>2024-10-20T00:12:27Z</time>
      </trkpt>
      <trkpt lat="45.67989" lon="4.31362">
        <ele>463</ele>
        <time>2024-10-20T00:13:04Z</time>
      </trkpt>
      <trkpt lat="45.67993" lon="4.31348">
        <ele>464</ele>
        <time>2024-10-20T00:13:13Z</time>
      </trkpt>
      <trkpt lat="45.68" lon="4.31276">
        <ele>466</ele>
        <time>2024-10-20T00:13:54Z</time>
      </trkpt>
      <trkpt lat="45.67997" lon="4.31237">
        <ele>466</ele>
        <time>2024-10-20T00:14:16Z</time>
      </trkpt>
      <trkpt lat="45.68005" lon="4.31155">
        <ele>467</ele>
        <time>2024-10-20T00:15:02Z</time>
      </trkpt>
      <trkpt lat="45.68007" lon="4.31139">
        <ele>467</ele>
        <time>2024-10-20T00:15:11Z</time>
      </trkpt>
      <trkpt lat="45.68011" lon="4.31134">
        <ele>467</ele>
        <time>2024-10-20T00:15:15Z</time>
      </trkpt>
      <trkpt lat="45.67994" lon="4.31092">
        <ele>469</ele>
        <time>2024-10-20T00:15:42Z</time>
      </trkpt>
      <trkpt lat="45.67982" lon="4.31053">
        <ele>468</ele>
        <time>2024-10-20T00:16:06Z</time>
      </trkpt>
      <trkpt lat="45.67971" lon="4.30983">
        <ele>467</ele>
        <time>2024-10-20T00:16:46Z</time>
      </trkpt>
      <trkpt lat="45.67953" lon="4.30908">
        <ele>466</ele>
        <time>2024-10-20T00:17:31Z</time>
      </trkpt>
      <trkpt lat="45.67917" lon="4.30785">
        <ele>461</ele>
        <time>2024-10-20T00:18:45Z</time>
      </trkpt>
      <trkpt lat="45.67905" lon="4.3075">
        <ele>459</ele>
        <time>2024-10-20T00:19:07Z</time>
      </trkpt>
      <trkpt lat="45.67897" lon="4.3073">
        <ele>458</ele>
        <time>2024-10-20T00:19:20Z</time>
      </trkpt>
      <trkpt lat="45.67889" lon="4.30715">
        <ele>458</ele>
        <time>2024-10-20T00:19:31Z</time>
      </trkpt>
      <trkpt lat="45.67816" lon="4.30588">
        <ele>454</ele>
        <time>2024-10-20T00:21:03Z</time>
      </trkpt>
      <trkpt lat="45.67803" lon="4.30557">
        <ele>453</ele>
        <time>2024-10-20T00:21:23Z</time>
      </trkpt>
      <trkpt lat="45.6778" lon="4.30491">
        <ele>451</ele>
        <time>2024-10-20T00:22:04Z</time>
      </trkpt>
      <trkpt lat="45.67771" lon="4.30458">
        <ele>452</ele>
        <time>2024-10-20T00:22:24Z</time>
      </trkpt>
      <trkpt lat="45.6775" lon="4.30397">
        <ele>454</ele>
        <time>2024-10-20T00:23:02Z</time>
      </trkpt>
      <trkpt lat="45.67748" lon="4.3038">
        <ele>454</ele>
        <time>2024-10-20T00:23:12Z</time>
      </trkpt>
      <trkpt lat="45.67748" lon="4.30363">
        <ele>454</ele>
        <time>2024-10-20T00:23:21Z</time>
      </trkpt>
      <trkpt lat="45.67753" lon="4.30305">
        <ele>453</ele>
        <time>2024-10-20T00:23:54Z</time>
      </trkpt>
      <trkpt lat="45.67753" lon="4.30293">
        <ele>452</ele>
        <time>2024-10-20T00:24:00Z</time>
      </trkpt>
      <trkpt lat="45.67745" lon="4.3027">
        <ele>451</ele>
        <time>2024-10-20T00:24:15Z</time>
      </trkpt>
      <trkpt lat="45.67738" lon="4.30261">
        <ele>450</ele>
        <time>2024-10-20T00:24:22Z</time>
      </trkpt>
      <trkpt lat="45.67718" lon="4.30241">
        <ele>448</ele>
        <time>2024-10-20T00:24:42Z</time>
      </trkpt>
      <trkpt lat="45.6771" lon="4.30228">
        <ele>447</ele>
        <time>2024-10-20T00:24:52Z</time>
      </trkpt>
      <trkpt lat="45.67706" lon="4.30215">
        <ele>447</ele>
        <time>2024-10-20T00:25:00Z</time>
      </trkpt>
      <trkpt lat="45.67705" lon="4.30108">
        <ele>443</ele>
        <time>2024-10-20T00:25:59Z</time>
      </trkpt>
    </trkseg>
  </trk>
</gpx>